Location: St. Malo Provincial Park
(49.3214°N, 96.9305°W)
Time: 10:26:27
(UTC-05:00)

Daily predictions for brighter satellites

Satellite Brightness Start Highest point End
(mag) Time Altitude Azimuth Time Altitude Azimuth Time Altitude Azimuth
COSMOS 2428 2.8 18:41:22 10° NNW 18:47:03 65° ENE 18:52:42 10° SE
Cosmos 2333 Rocket 2.7 18:44:11 10° NNW 18:49:37 41° NE 18:55:02 10° ESE
NOSS 0 Rocket 4.4 18:45:47 10° NNW 18:51:39 42° NE 18:57:28 10° ESE
Cosmos 2219 4.1 18:49:07 10° SSE 18:53:58 29° ESE 18:58:48 10° NE
Cosmos 1833 4.2 18:48:28 10° SSW 18:54:07 73° ESE 18:59:45 10° NNE
ERS-2 2.1 18:51:55 10° SSE 18:55:35 72° ENE 18:59:18 10° N
AQUARIUS 4.4 18:54:40 10° S 18:59:10 77° WSW 19:03:42 10° NNW
Cosmos 2058 3.0 18:55:53 10° N 19:00:06 87° W 19:04:15 10° S
Cosmos 1726 3.5 18:57:32 10° SE 19:00:12 19° E 19:02:52 10° NE
Sich 1 4.1 18:58:36 10° NNE 19:02:16 25° ENE 19:05:56 10° SE
SL-8 R/B 3.9 18:58:52 10° WSW 19:03:38 64° SSE 19:08:21 10° E
Cosmos 2151 3.2 19:00:02 10° NNW 19:04:20 78° W 19:08:34 10° S
SL-08 R/B 4.5 18:59:26 10° S 19:05:35 87° E 19:11:44 10° N
Cosmos 44 3.5 19:03:12 10° S 19:07:16 40° ESE 19:11:21 10° NE
MOS 1 4.3 19:03:16 10° SSE 19:08:52 67° ENE 19:14:32 10° N
NOAA 12 4.4 19:03:58 10° SE 19:08:58 44° ENE 19:14:02 10° N
Ariane Rocket 4.0 19:05:13 10° S 19:10:10 52° W 19:15:11 10° NNW
EO 1 Del DPAF 3.7 19:06:36 10° NNE 19:10:16 40° E 19:13:54 10° S
Landsat 4 3.6 19:06:56 10° NNE 19:10:40 71° ESE 19:14:22 10° S
COSMO-SKYMED 1 3.1 19:07:45 10° NNE 19:11:50 38° E 19:15:54 10° SSE
MONITOR-E 4.3 19:09:32 10° SSE 19:12:31 50° ENE 19:15:32 10° N
Cosmos 2219 Rocket 2.2 19:09:47 10° NNW 19:15:23 67° ENE 19:20:58 10° SE
MTI 3.8 19:13:35 10° NNE 19:16:47 60° ESE 19:19:57 10° S
METEOR-M 4.1 19:13:04 10° SSE 19:18:24 75° ENE 19:23:45 10° NNW
SMAP 4.2 19:14:54 10° S 19:19:24 49° W 19:23:58 10° NNW
Meteor 1-28 Rocket 3.1 19:16:12 10° NNE 19:20:01 85° ESE 19:23:47 10° SSW
Cosmos 1805 Rocket 3.7 19:16:35 10° N 19:20:54 53° ENE 19:25:14 10° SSE
Abrixas rocket 2.3 19:18:04 10° W 19:21:22 69° S 19:23:57 15° ESE
Resurs 01 Rocket 3.4 19:21:17 13° ENE 19:21:55 13° NE 19:23:53 10° NNE
CZ-4 R/B 2.5 19:19:48 10° S 19:23:52 51° W 19:27:53 10° NNW
BREEZE-M DEB (TANK) 4.0 19:12:36 10° W 19:26:23 68° S 19:29:58 16° E
Aureole 2 Rocket 2.7 19:22:46 10° NNW 19:26:43 84° ENE 19:30:47 10° SSE
GRACE-2 3.5 19:26:14 10° S 19:28:47 86° E 19:31:22 10° N
CZ-4C R/B 2.4 19:24:38 10° SSW 19:29:43 49° ESE 19:35:32 10° NE
Cosmos 1666 Rocket 3.8 19:26:19 10° N 19:30:28 43° ENE 19:34:36 10° SSE
Cosmos 1633 Rocket 3.5 19:30:00 10° N 19:34:11 40° ENE 19:38:22 10° SE
Cosmos 1315 Rocket 3.9 19:30:13 10° NNW 19:34:11 49° W 19:38:10 10° S
GRACE-1 3.9 19:32:57 10° S 19:35:31 69° W 19:38:06 10° N
YAOGAN 1 3.4 19:32:20 10° S 19:36:34 54° W 19:40:51 10° NNW
Cosmos 1269 Rocket 4.0 19:33:15 10° S 19:38:27 63° ESE 19:43:42 10° NNE
FREGAT/IRIS 3.4 19:37:52 25° E 19:38:38 29° ENE 19:41:17 10° N
Iridium 4 Rocket 3.7 19:36:00 10° S 19:41:42 71° E 19:47:38 10° N
SKYMED 3 4.5 19:37:38 10° NNE 19:42:01 77° ESE 19:46:21 10° S
USA 234 3.9 19:39:19 15° ENE 19:44:24 46° N 19:50:35 10° WNW
Cosmos 2084 3.7 19:42:12 10° NW 19:45:55 57° SW 19:49:43 10° SSE
Cosmos 44 Rocket 3.1 19:43:59 10° SW 19:48:41 87° SE 19:52:58 13° NE
Cosmos 1908 3.8 19:45:12 10° SSW 19:49:03 59° WNW 19:52:55 10° N
Cosmos 494 Rocket 4.5 19:46:17 10° SSE 19:50:52 34° ESE 19:54:55 13° NE
In-Cosmos 22 Rocket 4.3 19:45:46 10° N 19:51:29 61° ENE 19:57:14 10° SSE
Cosmos 2221 2.8 19:48:41 10° SSW 19:53:00 72° W 19:57:25 10° N
Cosmos 2237 Rocket 2.1 19:48:33 10° NNW 19:54:17 73° ENE 19:59:58 10° SE
SPOT 3 Rocket 4.0 19:49:19 10° S 19:54:29 66° WSW 19:59:43 10° NNW
SJ-6B 3.1 19:56:40 32° ESE 19:57:44 41° ENE 20:01:17 10° N
Lacrosse 5 rocket 2.7 19:54:32 10° NW 19:58:25 30° N 20:00:02 23° NE
Cosmos 1110 Rocket 4.0 19:53:28 10° NNW 19:58:50 89° SW 20:04:07 10° SSE
H-2A R/B 2.8 19:55:28 12° SSE 19:59:01 55° ENE 20:02:53 10° N
SKYMED 2 3.8 19:55:41 10° N 20:00:01 72° WNW 20:04:21 10° SSW
Cosmos 1934 Rocket 4.0 19:54:38 10° S 20:00:56 66° E 20:07:15 10° NNE
Cosmos 1821 Rocket 4.0 19:58:28 10° S 20:04:41 88° ESE 20:11:02 10° N
Cosmos 2227 Rocket 2.6 20:00:12 10° S 20:05:22 38° ESE 20:08:05 24° ENE
MOS 1-B Rocket 4.2 20:03:12 19° SE 20:07:10 47° ENE 20:13:23 10° N
SL-16 R/B 2.5 20:02:20 10° NNW 20:07:48 45° NE 20:09:56 32° ESE
Cosmos 2239 Rocket 4.5 20:03:17 10° S 20:09:25 86° W 20:15:39 10° N
USA 32 4.2 20:04:49 10° N 20:09:55 49° ENE 20:13:51 16° SSE
Cosmos 1300 2.5 20:06:21 10° S 20:10:10 78° E 20:14:02 10° NNE
Cosmos 2098 Rocket 3.9 20:05:08 10° SSW 20:10:14 77° W 20:16:46 10° N
Cosmos 1892 3.5 20:09:16 10° N 20:12:01 34° NE 20:12:01 34° NE
ATLAS 5 CENTAUR R/B 3.7 20:11:02 10° NW 20:15:23 23° NNE 20:17:13 20° NE
Cosmos 1980 3.9 20:13:21 10° NNW 20:19:00 73° WSW 20:24:38 10° SSE
APEX 4.4 20:16:52 10° WSW 20:19:24 28° NW 20:20:37 20° N
ALOS 3.2 20:15:37 10° S 20:20:09 50° W 20:24:43 10° NNW
FENGYUN 3A 4.5 20:20:14 10° S 20:25:30 53° W 20:30:50 10° NNW
SWAS 4.3 20:23:09 10° SSW 20:27:21 63° ESE 20:27:24 63° ESE
Meteor 2-10 4.0 20:22:25 10° SSW 20:27:30 84° WNW 20:32:44 10° N
Envisat 3.2 20:28:03 45° ENE 20:28:10 45° ENE 20:33:00 10° N
CZ-2D R/B 3.9 20:29:18 42° NNE 20:29:18 42° NNE 20:32:09 10° N
Cosmos 1470 Rocket 3.4 20:24:35 10° N 20:29:06 75° E 20:30:26 44° SSE
Cosmos 2123 Rocket 4.3 20:25:22 10° NNW 20:31:35 70° W 20:37:49 10° S
Meteor 2-3 Rocket 3.6 20:26:47 10° N 20:32:35 71° ENE 20:35:42 28° SSE
Cosmos 2251 Rocket 3.5 20:28:09 10° S 20:33:20 58° ESE 20:34:47 43° NE
Cosmos 2333 Rocket 3.4 20:28:34 10° NW 20:33:55 41° WSW 20:39:16 10° S
BREEZE-M DEB (TANK) 4.3 20:32:35 10° WSW 20:33:16 19° WSW 20:33:16 19° WSW
Cosmos 1726 3.8 20:31:53 10° SW 20:35:17 34° WNW 20:38:41 10° N
Cosmos 2219 3.8 20:32:10 10° SW 20:37:48 56° NW 20:43:28 10° NNE
Cosmos 1605 Rocket 3.8 20:33:10 10° S 20:39:15 85° E 20:45:23 10° N
BREEZE-M DEB (TANK) 4.2 20:22:17 10° WNW 20:39:52 58° SW 20:42:21 33° SSE
Cosmos 2297 Rocket 2.1 20:36:45 10° S 20:42:17 60° ESE 20:42:52 57° E
HJ-1C 4.4 20:45:48 47° WNW 20:45:48 47° WNW 20:48:36 10° NNW
SL-8 R/B 3.5 20:41:17 10° W 20:46:07 81° S 20:46:19 79° SE
Cosmos 1153 Rocket 4.3 20:40:02 10° S 20:46:07 68° E 20:52:20 10° NNE
Cosmos 44 4.5 20:44:34 10° WSW 20:48:32 34° NW 20:50:27 23° N
Thor Agena Rocket 3.7 20:44:29 10° NNE 20:49:35 71° WNW 20:54:36 10° SSW
Cosmos 2082 3.6 20:48:07 10° SSW 20:53:48 71° ESE 20:54:11 68° E
Meteor 2-17 Rocket 4.3 20:48:10 10° S 20:54:11 71° E 21:00:17 10° NNE
Resurs 01 Rocket 2.2 20:58:52 49° N 20:58:52 49° N 21:02:09 10° NNW
Resurs 1-3 4.4 20:59:41 43° N 20:59:41 43° N 21:02:41 10° NNW
Cosmos 2219 Rocket 4.4 20:54:34 10° NW 20:58:50 23° WSW 21:03:06 10° SSW
Cosmos 2228 Rocket 4.3 21:09:23 10° SSW 21:15:26 36° NNW 21:18:22 10° N
CZ-4C R/B 3.2 21:13:04 10° WSW 21:18:21 44° NNW 21:21:00 29° NNE
USA 234 3.3 21:26:41 62° NNE 21:26:53 63° NNE 21:33:21 10° WNW
Spot 2 Rocket 4.2 21:32:41 50° WNW 21:32:41 50° WNW 21:36:50 10° NNW
Cosmos 2237 Rocket 4.4 21:33:35 10° NW 21:37:45 21° W 21:41:54 10° SSW
Lacrosse 5 rocket 3.7 21:34:05 10° NW 21:35:43 22° NW 21:35:43 22° NW
Cosmos 2227 Rocket 3.2 21:44:01 10° WSW 21:49:23 43° NW 21:50:00 41° NW
SL-16 R/B 3.4 21:46:40 10° NW 21:51:50 36° WSW 21:51:50 36° WSW
H-2A R/B 4.4 22:04:11 16° N 22:04:11 16° N 22:05:13 10° N
ATLAS 5 CENTAUR R/B 3.6 21:55:35 10° NW 21:58:45 33° NNW 21:58:45 33° NNW
Cosmos 2297 Rocket 4.1 22:21:46 10° WSW 22:24:46 24° W 22:24:46 24° W
